| time (UTC) | temp F | wind direction | speed MPH | gust MPH | rain 1hr in | rain 24hr in | rain mn in | humidity % | barometer mb |
| 20260903200405 | 77 | 161 | 3.0 | 8.0 | 0.00 | 0.00 | 0.00 | 60 | 1017.6 |
| 20260903195900 | 78 | 132 | 3.0 | 4.0 | 0.00 | 0.00 | 0.00 | 61 | 1017.6 |
| 20260903195356 | 77 | 85 | 3.0 | 3.0 | 0.00 | 0.00 | 0.00 | 61 | 1017.6 |
| 20260903194850 | 76 | 46 | 4.0 | 6.0 | 0.00 | 0.00 | 0.00 | 61 | 1017.8 |
| 20260903194346 | 77 | 90 | 6.0 | 8.0 | 0.00 | 0.00 | 0.00 | 60 | 1017.6 |
| 20260903193841 | 77 | 104 | 4.0 | 10.0 | 0.00 | 0.00 | 0.00 | 63 | 1017.7 |
| 20260903193337 | 77 | 109 | 4.0 | 8.0 | 0.00 | 0.00 | 0.00 | 62 | 1017.6 |
| 20260903192832 | 77 | 149 | 2.0 | 6.0 | 0.00 | 0.00 | 0.00 | 61 | 1017.6 |
| 20260903192328 | 77 | 68 | 5.0 | 8.0 | 0.00 | 0.00 | 0.00 | 60 | 1017.7 |
| 20260903191825 | 77 | 305 | 3.0 | 6.0 | 0.00 | 0.00 | 0.00 | 60 | 1017.5 |
| 20260903191320 | 76 | 84 | 3.0 | 6.0 | 0.00 | 0.00 | 0.00 | 61 | 1017.7 |
| 20260903190819 | 77 | 82 | 3.0 | 9.0 | 0.00 | 0.00 | 0.00 | 60 | 1017.8 |
| 20260903190315 | 77 | 110 | 2.0 | 4.0 | 0.00 | 0.00 | 0.00 | 61 | 1017.9 |
| 20260903185814 | 77 | 86 | 2.0 | 8.0 | 0.00 | 0.00 | 0.00 | 62 | 1017.9 |
| 20260903185309 | 76 | 226 | 2.0 | 6.0 | 0.00 | 0.00 | 0.00 | 63 | 1017.9 |
| 20260903184805 | 76 | 128 | 2.0 | 6.0 | 0.00 | 0.00 | 0.00 | 64 | 1018.0 |
| 20260903184302 | 76 | 102 | 6.0 | 7.0 | 0.00 | 0.00 | 0.00 | 65 | 1018.0 |
| 20260903183756 | 76 | 201 | 1.0 | 4.0 | 0.00 | 0.00 | 0.00 | 66 | 1018.1 |
| 20260903183250 | 77 | 206 | 2.0 | 10.0 | 0.00 | 0.00 | 0.00 | 66 | 1018.3 |
| 20260903182749 | 75 | 108 | 4.0 | 7.0 | 0.00 | 0.00 | 0.00 | 66 | 1018.3 |
| 20260903182244 | 77 | 90 | 4.0 | 9.0 | 0.00 | 0.00 | 0.00 | 65 | 1018.3 |
| 20260903181743 | 78 | 132 | 4.0 | 7.0 | 0.00 | 0.00 | 0.00 | 63 | 1018.4 |
| 20260903181238 | 78 | 141 | 4.0 | 4.0 | 0.00 | 0.00 | 0.00 | 63 | 1018.1 |
| 20260903180734 | 80 | 81 | 2.0 | 2.0 | 0.00 | 0.00 | 0.00 | 59 | 1018.4 |
| 20260903180232 | 78 | 173 | 2.0 | 4.0 | 0.00 | 0.00 | 0.00 | 62 | 1018.5 |
| 20260903175727 | 78 | 286 | 2.0 | 3.0 | 0.00 | 0.00 | 0.00 | 61 | 1018.3 |
| 20260903175226 | 78 | 82 | 3.0 | 8.0 | 0.00 | 0.00 | 0.00 | 62 | 1018.4 |
| 20260903174725 | 78 | 97 | 2.0 | 7.0 | 0.00 | 0.00 | 0.00 | 60 | 1018.4 |
| 20260903174221 | 77 | 104 | 1.0 | 3.0 | 0.00 | 0.00 | 0.00 | 60 | 1018.4 |
| 20260903173716 | 78 | 128 | 2.0 | 8.0 | 0.00 | 0.00 | 0.00 | 62 | 1018.5 |
| 20260903173211 | 79 | 209 | 4.0 | 4.0 | 0.00 | 0.00 | 0.00 | 59 | 1018.6 |
| 20260903172706 | 78 | 122 | 2.0 | 4.0 | 0.00 | 0.00 | 0.00 | 61 | 1018.6 |
| 20260903172201 | 78 | 173 | 4.0 | 7.0 | 0.00 | 0.00 | 0.00 | 60 | 1018.8 |
| 20260903171656 | 78 | 103 | 3.0 | 4.0 | 0.00 | 0.00 | 0.00 | 60 | 1018.6 |
| 20260903171152 | 78 | 164 | 2.0 | 3.0 | 0.00 | 0.00 | 0.00 | 60 | 1018.6 |
| 20260903170651 | 78 | 88 | 4.0 | 6.0 | 0.00 | 0.00 | 0.00 | 59 | 1018.5 |
| 20260903170146 | 78 | 65 | 3.0 | 6.0 | 0.00 | 0.00 | 0.00 | 62 | 1018.6 |
| 20260903165644 | 77 | 136 | 1.0 | 6.0 | 0.00 | 0.00 | 0.00 | 63 | 1018.7 |
| 20260903165139 | 77 | 84 | 3.0 | 4.0 | 0.00 | 0.00 | 0.00 | 63 | 1018.6 |
| 20260903164634 | 76 | 123 | 2.0 | 6.0 | 0.00 | 0.00 | 0.00 | 64 | 1018.8 |
| 20260903164130 | 76 | 185 | 2.0 | 6.0 | 0.00 | 0.00 | 0.00 | 63 | 1018.9 |
| 20260903163629 | 77 | 226 | 2.0 | 6.0 | 0.00 | 0.00 | 0.00 | 65 | 1018.7 |
| 20260903163126 | 76 | 232 | 1.0 | 4.0 | 0.00 | 0.00 | 0.00 | 65 | 1018.7 |
| 20260903162622 | 78 | 164 | 4.0 | 7.0 | 0.00 | 0.00 | 0.00 | 62 | 1018.8 |
| 20260903162118 | 77 | 214 | 0.0 | 3.0 | 0.00 | 0.00 | 0.00 | 66 | 1018.7 |
| 20260903161619 | 76 | 131 | 2.0 | 4.0 | 0.00 | 0.00 | 0.00 | 65 | 1018.8 |
| 20260903161114 | 77 | 205 | 2.0 | 6.0 | 0.00 | 0.00 | 0.00 | 65 | 1018.5 |
| 20260903160609 | 75 | 229 | 1.0 | 4.0 | 0.00 | 0.00 | 0.00 | 65 | 1018.7 |
| 20260903160103 | 75 | 137 | 1.0 | 3.0 | 0.00 | 0.00 | 0.00 | 66 | 1018.7 |
| 20260903155602 | 75 | 117 | 2.0 | 3.0 | 0.00 | 0.00 | 0.00 | 68 | 1018.7 |
| 20260903155057 | 76 | 201 | 1.0 | 2.0 | 0.00 | 0.00 | 0.00 | 66 | 1018.8 |
| 20260903154554 | 74 | 210 | 0.0 | 4.0 | 0.00 | 0.00 | 0.00 | 68 | 1019.0 |
| 20260903154050 | 74 | 158 | 2.0 | 3.0 | 0.00 | 0.00 | 0.00 | 69 | 1018.7 |
| 20260903153544 | 73 | 177 | 2.0 | 3.0 | 0.00 | 0.00 | 0.00 | 70 | 1018.8 |
| 20260903153040 | 74 | 177 | 2.0 | 4.0 | 0.00 | 0.00 | 0.00 | 70 | 1018.6 |
| 20260903152536 | 73 | 145 | 1.0 | 2.0 | 0.00 | 0.00 | 0.00 | 68 | 1018.9 |
| 20260903152033 | 73 | 166 | 2.0 | 4.0 | 0.00 | 0.00 | 0.00 | 73 | 1018.8 |
| 20260903151531 | 72 | 165 | 2.0 | 3.0 | 0.00 | 0.00 | 0.00 | 72 | 1018.9 |
| 20260903151027 | 72 | 196 | 5.0 | 6.0 | 0.00 | 0.00 | 0.00 | 72 | 1018.7 |
| 20260903150521 | 72 | 169 | 0.0 | 2.0 | 0.00 | 0.00 | 0.00 | 73 | 1018.9 |
| 20260903150016 | 71 | 189 | 1.0 | 3.0 | 0.00 | 0.00 | 0.00 | 74 | 1018.9 |
| 20260903145516 | 69 | 176 | 1.0 | 6.0 | 0.00 | 0.00 | 0.00 | 78 | 1019.0 |
| 20260903145011 | 69 | 166 | 3.0 | 3.0 | 0.00 | 0.00 | 0.00 | 78 | 1018.7 |
| 20260903144510 | 70 | 95 | 2.0 | 4.0 | 0.00 | 0.00 | 0.00 | 77 | 1018.8 |
| 20260903144006 | 70 | 156 | 2.0 | 6.0 | 0.00 | 0.00 | 0.00 | 77 | 1018.9 |
| 20260903143502 | 70 | 102 | 2.0 | 4.0 | 0.00 | 0.00 | 0.00 | 78 | 1019.0 |
| 20260903142958 | 69 | 81 | 2.0 | 6.0 | 0.00 | 0.00 | 0.00 | 78 | 1018.9 |
| 20260903142453 | 69 | 128 | 2.0 | 4.0 | 0.00 | 0.00 | 0.00 | 77 | 1019.1 |
| 20260903141949 | 70 | 175 | 2.0 | 4.0 | 0.00 | 0.00 | 0.00 | 76 | 1019.1 |
| 20260903141444 | 69 | 180 | 2.0 | 3.0 | 0.00 | 0.00 | 0.00 | 77 | 1018.9 |
| 20260903140940 | 69 | 174 | 2.0 | 3.0 | 0.00 | 0.00 | 0.00 | 78 | 1018.9 |
| 20260903140436 | 70 | 126 | 1.0 | 4.0 | 0.00 | 0.00 | 0.00 | 77 | 1018.9 |
| 20260903135931 | 71 | 135 | 1.0 | 2.0 | 0.00 | 0.00 | 0.00 | 75 | 1018.8 |
| 20260903135427 | 70 | 193 | 1.0 | 1.0 | 0.00 | 0.00 | 0.00 | 76 | 1018.9 |
| 20260903134926 | 69 | 213 | 0.0 | 0.0 | 0.00 | 0.00 | 0.00 | 78 | 1018.6 |
| 20260903134420 | 68 | 183 | 0.0 | 0.0 | 0.00 | 0.00 | 0.00 | 78 | 1018.7 |
| 20260903133918 | 69 | 149 | 2.0 | 3.0 | 0.00 | 0.00 | 0.00 | 76 | 1018.6 |
| 20260903133414 | 69 | 200 | 2.0 | 3.0 | 0.00 | 0.00 | 0.00 | 74 | 1018.5 |
| 20260903132915 | 69 | 188 | 0.0 | 1.0 | 0.00 | 0.00 | 0.00 | 76 | 1018.8 |
| 20260903132410 | 69 | 158 | 0.0 | 1.0 | 0.00 | 0.00 | 0.00 | 78 | 1018.7 |
| 20260903131904 | 68 | 175 | 1.0 | 2.0 | 0.00 | 0.00 | 0.00 | 77 | 1018.8 |
| 20260903131358 | 68 | 172 | 0.0 | 1.0 | 0.00 | 0.00 | 0.00 | 80 | 1018.6 |
| 20260903130857 | 66 | 185 | 0.0 | 0.0 | 0.00 | 0.00 | 0.00 | 80 | 1018.8 |
| 20260903130352 | 65 | 191 | 0.0 | 0.0 | 0.00 | 0.00 | 0.00 | 85 | 1018.8 |
| 20260903125851 | 64 | 148 | 0.0 | 1.0 | 0.00 | 0.00 | 0.00 | 85 | 1018.8 |
| 20260903125347 | 62 | 210 | 0.0 | 1.0 | 0.00 | 0.00 | 0.00 | 87 | 1018.6 |
| 20260903124845 | 63 | 219 | 0.0 | 1.0 | 0.00 | 0.00 | 0.00 | 85 | 1018.6 |
| 20260903124342 | 64 | 219 | 0.0 | 1.0 | 0.00 | 0.00 | 0.00 | 86 | 1018.4 |
| 20260903123840 | 63 | 206 | 0.0 | 0.0 | 0.00 | 0.00 | 0.00 | 87 | 1018.4 |
| 20260903123329 | 60 | 120 | 0.0 | 0.0 | 0.00 | 0.00 | 0.00 | 92 | 1018.1 |
| 20260903122828 | 59 | 121 | 0.0 | 0.0 | 0.00 | 0.00 | 0.00 | 94 | 1018.3 |
| 20260903122322 | 59 | 121 | 0.0 | 0.0 | 0.00 | 0.00 | 0.00 | 95 | 1018.5 |
| 20260903121821 | 59 | 120 | 0.0 | 0.0 | 0.00 | 0.00 | 0.00 | 95 | 1018.4 |
| 20260903121316 | 59 | 120 | 0.0 | 0.0 | 0.00 | 0.00 | 0.00 | 95 | 1018.4 |
| 20260903120813 | 59 | 120 | 0.0 | 0.0 | 0.00 | 0.00 | 0.00 | 95 | 1018.4 |
| 20260903120312 | 58 | 120 | 0.0 | 0.0 | 0.00 | 0.00 | 0.00 | 95 | 1018.4 |
| 20260903115810 | 58 | 120 | 0.0 | 0.0 | 0.00 | 0.00 | 0.00 | 95 | 1018.1 |
| 20260903115306 | 58 | 120 | 0.0 | 0.0 | 0.00 | 0.00 | 0.00 | 94 | 1018.0 |
| 20260903114805 | 58 | 120 | 0.0 | 0.0 | 0.00 | 0.00 | 0.00 | 94 | 1018.1 |
| 20260903114301 | 58 | 120 | 0.0 | 0.0 | 0.00 | 0.00 | 0.00 | 94 | 1018.0 |
| 20260903113756 | 58 | 120 | 0.0 | 0.0 | 0.00 | 0.00 | 0.00 | 94 | 1018.1 |
| 20260903113252 | 58 | 120 | 0.0 | 0.0 | 0.00 | 0.00 | 0.00 | 93 | 1017.9 |
| 20260903112747 | 58 | 119 | 0.0 | 0.0 | 0.00 | 0.00 | 0.00 | 93 | 1017.9 |
| 20260903112243 | 58 | 120 | 0.0 | 0.0 | 0.00 | 0.00 | 0.00 | 93 | 1017.9 |
| 20260903111741 | 58 | 119 | 0.0 | 0.0 | 0.00 | 0.00 | 0.00 | 92 | 1017.8 |
| 20260903111237 | 58 | 119 | 0.0 | 0.0 | 0.00 | 0.00 | 0.00 | 93 | 1018.0 |
| 20260903110733 | 58 | 119 | 0.0 | 0.0 | 0.00 | 0.00 | 0.00 | 93 | 1017.9 |
| 20260903110229 | 58 | 119 | 0.0 | 0.0 | 0.00 | 0.00 | 0.00 | 93 | 1017.7 |
| 20260903105728 | 58 | 119 | 0.0 | 0.0 | 0.00 | 0.00 | 0.00 | 93 | 1017.8 |
| 20260903105223 | 58 | 119 | 0.0 | 0.0 | 0.00 | 0.00 | 0.00 | 92 | 1017.9 |
| 20260903104723 | 58 | 119 | 0.0 | 0.0 | 0.00 | 0.00 | 0.00 | 92 | 1017.8 |
| 20260903104218 | 58 | 119 | 0.0 | 0.0 | 0.00 | 0.00 | 0.00 | 92 | 1017.8 |
| 20260903103714 | 58 | 119 | 0.0 | 0.0 | 0.00 | 0.00 | 0.00 | 93 | 1017.7 |
| 20260903103210 | 59 | 119 | 0.0 | 0.0 | 0.00 | 0.00 | 0.00 | 92 | 1017.7 |
| 20260903102705 | 59 | 118 | 0.0 | 0.0 | 0.00 | 0.00 | 0.00 | 92 | 1017.8 |
| 20260903102159 | 59 | 118 | 0.0 | 0.0 | 0.00 | 0.00 | 0.00 | 92 | 1017.8 |
| 20260903101658 | 59 | 119 | 0.0 | 0.0 | 0.00 | 0.00 | 0.00 | 91 | 1017.9 |
| 20260903101154 | 59 | 119 | 0.0 | 0.0 | 0.00 | 0.00 | 0.00 | 92 | 1017.8 |
| 20260903100654 | 59 | 119 | 0.0 | 0.0 | 0.00 | 0.00 | 0.00 | 92 | 1017.7 |
| 20260903100154 | 59 | 119 | 0.0 | 0.0 | 0.00 | 0.00 | 0.00 | 92 | 1017.8 |
| 20260903095651 | 59 | 133 | 0.0 | 0.0 | 0.00 | 0.00 | 0.00 | 92 | 1017.7 |
| 20260903095146 | 59 | 143 | 0.0 | 0.0 | 0.00 | 0.00 | 0.00 | 92 | 1017.8 |
| 20260903094641 | 59 | 142 | 0.0 | 0.0 | 0.00 | 0.00 | 0.00 | 92 | 1017.6 |
| 20260903094137 | 59 | 133 | 0.0 | 1.0 | 0.00 | 0.00 | 0.00 | 92 | 1017.5 |
| 20260903093632 | 59 | 129 | 0.0 | 1.0 | 0.00 | 0.00 | 0.00 | 93 | 1017.6 |
| 20260903093127 | 59 | 140 | 0.0 | 0.0 | 0.00 | 0.00 | 0.00 | 94 | 1017.9 |
| 20260903092627 | 59 | 142 | 0.0 | 0.0 | 0.00 | 0.00 | 0.00 | 94 | 1017.7 |
| 20260903092121 | 59 | 195 | 0.0 | 0.0 | 0.00 | 0.00 | 0.00 | 94 | 1017.8 |
| 20260903091620 | 59 | 174 | 0.0 | 0.0 | 0.00 | 0.00 | 0.00 | 94 | 1017.7 |
| 20260903091114 | 59 | 193 | 0.0 | 0.0 | 0.00 | 0.00 | 0.00 | 94 | 1017.6 |
| 20260903090610 | 59 | 193 | 0.0 | 0.0 | 0.00 | 0.00 | 0.00 | 94 | 1017.8 |
| 20260903090109 | 59 | 173 | 0.0 | 0.0 | 0.00 | 0.00 | 0.00 | 94 | 1017.8 |
| 20260903085608 | 59 | 167 | 0.0 | 0.0 | 0.00 | 0.00 | 0.00 | 94 | 1017.8 |
| 20260903085103 | 59 | 191 | 0.0 | 0.0 | 0.00 | 0.00 | 0.00 | 94 | 1017.8 |
| 20260903084601 | 59 | 198 | 0.0 | 0.0 | 0.00 | 0.00 | 0.00 | 94 | 1017.6 |
| 20260903084056 | 59 | 133 | 0.0 | 0.0 | 0.00 | 0.00 | 0.00 | 94 | 1017.9 |
| 20260903083552 | 59 | 136 | 0.0 | 0.0 | 0.00 | 0.00 | 0.00 | 94 | 1017.8 |
| 20260903083051 | 59 | 184 | 0.0 | 0.0 | 0.00 | 0.00 | 0.00 | 94 | 1017.8 |
| 20260903082546 | 60 | 184 | 0.0 | 0.0 | 0.00 | 0.00 | 0.00 | 93 | 1018.0 |
| 20260903082041 | 60 | 172 | 0.0 | 0.0 | 0.00 | 0.00 | 0.00 | 94 | 1017.8 |
| 20260903081537 | 60 | 190 | 0.0 | 0.0 | 0.00 | 0.00 | 0.00 | 94 | 1017.8 |
| 20260903081033 | 60 | 167 | 0.0 | 0.0 | 0.00 | 0.00 | 0.00 | 94 | 1017.8 |
| 20260903080529 | 60 | 176 | 0.0 | 0.0 | 0.00 | 0.00 | 0.00 | 94 | 1017.8 |
| 20260903080025 | 60 | 162 | 0.0 | 0.0 | 0.00 | 0.00 | 0.00 | 94 | 1017.8 |
| 20260903075519 | 60 | 186 | 0.0 | 0.0 | 0.00 | 0.00 | 0.00 | 93 | 1018.0 |
| 20260903075015 | 60 | 186 | 0.0 | 0.0 | 0.00 | 0.00 | 0.00 | 93 | 1017.9 |
| 20260903074508 | 60 | 183 | 0.0 | 0.0 | 0.00 | 0.00 | 0.00 | 93 | 1018.0 |
| 20260903074003 | 60 | 183 | 0.0 | 0.0 | 0.00 | 0.00 | 0.00 | 93 | 1017.9 |
| 20260903073458 | 60 | 184 | 0.0 | 0.0 | 0.00 | 0.00 | 0.00 | 94 | 1017.9 |
| 20260903072953 | 60 | 193 | 0.0 | 0.0 | 0.00 | 0.00 | 0.00 | 93 | 1017.9 |
| 20260903072449 | 60 | 191 | 0.0 | 0.0 | 0.00 | 0.00 | 0.00 | 93 | 1017.8 |
| 20260903071941 | 60 | 191 | 0.0 | 0.0 | 0.00 | 0.00 | 0.00 | 93 | 1017.8 |
| 20260903071436 | 60 | 200 | 0.0 | 0.0 | 0.00 | 0.00 | 0.00 | 93 | 1017.8 |
| 20260903070932 | 60 | 203 | 0.0 | 0.0 | 0.00 | 0.00 | 0.00 | 94 | 1017.7 |
| 20260903070431 | 60 | 189 | 0.0 | 0.0 | 0.00 | 0.00 | 0.00 | 93 | 1017.7 |
| 20260903065926 | 60 | 191 | 0.0 | 0.0 | 0.00 | 0.00 | 0.00 | 93 | 1017.8 |
| 20260903065421 | 60 | 193 | 0.0 | 0.0 | 0.00 | 0.00 | 0.00 | 93 | 1017.9 |
| 20260903064920 | 60 | 195 | 0.0 | 0.0 | 0.00 | 0.00 | 0.00 | 94 | 1018.0 |
| 20260903064416 | 60 | 211 | 0.0 | 0.0 | 0.00 | 0.00 | 0.00 | 94 | 1017.9 |
| 20260903063911 | 60 | 211 | 0.0 | 0.0 | 0.00 | 0.00 | 0.00 | 94 | 1017.8 |
| 20260903063406 | 60 | 202 | 0.0 | 0.0 | 0.00 | 0.00 | 0.00 | 94 | 1018.0 |
| 20260903062902 | 60 | 198 | 0.0 | 0.0 | 0.00 | 0.00 | 0.00 | 94 | 1018.0 |
| 20260903062356 | 60 | 202 | 0.0 | 0.0 | 0.00 | 0.00 | 0.00 | 94 | 1018.0 |
| 20260903061852 | 60 | 202 | 0.0 | 0.0 | 0.00 | 0.00 | 0.00 | 94 | 1017.9 |
| 20260903061351 | 61 | 202 | 0.0 | 0.0 | 0.00 | 0.00 | 0.00 | 93 | 1017.9 |
| 20260903060848 | 61 | 197 | 0.0 | 0.0 | 0.00 | 0.00 | 0.00 | 93 | 1017.8 |
| 20260903060347 | 61 | 200 | 0.0 | 0.0 | 0.00 | 0.00 | 0.00 | 92 | 1017.7 |
| 20260903055845 | 61 | 189 | 0.0 | 1.0 | 0.00 | 0.00 | 0.00 | 92 | 1017.8 |
| 20260903055343 | 62 | 193 | 0.0 | 2.0 | 0.00 | 0.00 | 0.00 | 90 | 1017.7 |
| 20260903054838 | 62 | 168 | 1.0 | 2.0 | 0.00 | 0.00 | 0.00 | 91 | 1017.8 |
| 20260903054338 | 61 | 171 | 0.0 | 0.0 | 0.00 | 0.00 | 0.00 | 92 | 1017.5 |
| 20260903053834 | 61 | 171 | 0.0 | 0.0 | 0.00 | 0.00 | 0.00 | 92 | 1017.7 |
| 20260903053330 | 61 | 171 | 0.0 | 0.0 | 0.00 | 0.00 | 0.00 | 92 | 1017.6 |
| 20260903052826 | 61 | 171 | 0.0 | 0.0 | 0.00 | 0.00 | 0.00 | 92 | 1017.4 |
| 20260903052321 | 61 | 171 | 0.0 | 0.0 | 0.00 | 0.00 | 0.00 | 91 | 1017.5 |
| 20260903051816 | 61 | 171 | 0.0 | 0.0 | 0.00 | 0.00 | 0.00 | 91 | 1017.4 |
| 20260903051312 | 62 | 171 | 0.0 | 0.0 | 0.00 | 0.00 | 0.00 | 91 | 1017.5 |
| 20260903050807 | 61 | 171 | 0.0 | 0.0 | 0.00 | 0.00 | 0.00 | 91 | 1017.3 |
| 20260903050306 | 61 | 171 | 0.0 | 0.0 | 0.00 | 0.00 | 0.00 | 92 | 1017.4 |
| 20260903045801 | 61 | 171 | 0.0 | 0.0 | 0.00 | 0.00 | 0.00 | 91 | 1017.5 |
| 20260903045257 | 62 | 171 | 0.0 | 0.0 | 0.00 | 0.00 | 0.00 | 91 | 1017.4 |
| 20260903044753 | 61 | 171 | 0.0 | 0.0 | 0.00 | 0.00 | 0.00 | 92 | 1017.4 |
| 20260903044248 | 61 | 171 | 0.0 | 0.0 | 0.00 | 0.00 | 0.00 | 92 | 1017.6 |
| 20260903043745 | 61 | 171 | 0.0 | 0.0 | 0.00 | 0.00 | 0.00 | 93 | 1017.6 |
| 20260903043244 | 61 | 171 | 0.0 | 0.0 | 0.00 | 0.00 | 0.00 | 93 | 1017.6 |
| 20260903042743 | 61 | 171 | 0.0 | 0.0 | 0.00 | 0.00 | 0.00 | 92 | 1017.5 |
| 20260903042239 | 62 | 170 | 0.0 | 0.0 | 0.00 | 0.00 | 0.00 | 92 | 1017.5 |
| 20260903041735 | 61 | 171 | 0.0 | 0.0 | 0.00 | 0.00 | 0.00 | 92 | 1017.5 |
| 20260903041231 | 61 | 171 | 0.0 | 0.0 | 0.00 | 0.00 | 0.00 | 92 | 1017.5 |
| 20260903040725 | 62 | 171 | 0.0 | 0.0 | 0.00 | 0.00 | 0.00 | 92 | 1017.6 |
| 20260903040220 | 62 | 171 | 0.0 | 0.0 | 0.00 | 0.00 | 0.00 | 92 | 1017.3 |
| 20260903035716 | 62 | 171 | 0.0 | 0.0 | 0.00 | 0.00 | 0.00 | 91 | 1017.6 |
| 20260903035212 | 62 | 171 | 0.0 | 0.0 | 0.00 | 0.00 | 0.00 | 91 | 1017.8 |
| 20260903034711 | 62 | 171 | 0.0 | 0.0 | 0.00 | 0.00 | 0.00 | 91 | 1017.5 |
| 20260903034206 | 62 | 171 | 0.0 | 0.0 | 0.00 | 0.00 | 0.00 | 91 | 1017.4 |
| 20260903033702 | 62 | 171 | 0.0 | 0.0 | 0.00 | 0.00 | 0.00 | 90 | 1017.3 |
| 20260903033201 | 62 | 171 | 0.0 | 0.0 | 0.00 | 0.00 | 0.00 | 91 | 1017.3 |
| 20260903032656 | 62 | 171 | 0.0 | 0.0 | 0.00 | 0.00 | 0.00 | 91 | 1017.4 |
| 20260903032152 | 62 | 171 | 0.0 | 0.0 | 0.00 | 0.00 | 0.00 | 90 | 1017.5 |
| 20260903031648 | 62 | 171 | 0.0 | 0.0 | 0.00 | 0.00 | 0.00 | 90 | 1017.2 |
| 20260903031147 | 62 | 171 | 0.0 | 0.0 | 0.00 | 0.00 | 0.00 | 90 | 1017.3 |
| 20260903030643 | 62 | 171 | 0.0 | 0.0 | 0.00 | 0.00 | 0.00 | 89 | 1017.3 |
| 20260903030138 | 62 | 171 | 0.0 | 0.0 | 0.00 | 0.00 | 0.00 | 88 | 1017.6 |
| 20260903025634 | 62 | 171 | 0.0 | 0.0 | 0.00 | 0.00 | 0.00 | 88 | 1017.4 |
| 20260903025129 | 61 | 171 | 0.0 | 0.0 | 0.00 | 0.00 | 0.00 | 89 | 1017.3 |
| 20260903024624 | 61 | 171 | 0.0 | 0.0 | 0.00 | 0.00 | 0.00 | 89 | 1017.3 |
| 20260903024118 | 61 | 171 | 0.0 | 0.0 | 0.00 | 0.00 | 0.00 | 88 | 1017.3 |
| 20260903023614 | 61 | 171 | 0.0 | 0.0 | 0.00 | 0.00 | 0.00 | 87 | 1017.4 |
| 20260903023109 | 62 | 171 | 0.0 | 0.0 | 0.00 | 0.00 | 0.00 | 86 | 1017.3 |
| 20260903022608 | 62 | 171 | 0.0 | 0.0 | 0.00 | 0.00 | 0.00 | 86 | 1017.5 |
| 20260903022107 | 62 | 171 | 0.0 | 0.0 | 0.00 | 0.00 | 0.00 | 86 | 1017.3 |
| 20260903021602 | 62 | 171 | 0.0 | 0.0 | 0.00 | 0.00 | 0.00 | 85 | 1017.5 |
| 20260903021057 | 63 | 171 | 0.0 | 0.0 | 0.00 | 0.00 | 0.00 | 84 | 1017.3 |
| 20260903020552 | 63 | 170 | 0.0 | 0.0 | 0.00 | 0.00 | 0.00 | 83 | 1017.3 |
| 20260903020047 | 63 | 170 | 0.0 | 0.0 | 0.00 | 0.00 | 0.00 | 83 | 1017.3 |
| 20260903015543 | 64 | 166 | 0.0 | 0.0 | 0.00 | 0.00 | 0.00 | 81 | 1017.4 |
| 20260903015037 | 64 | 161 | 0.0 | 0.0 | 0.00 | 0.00 | 0.00 | 81 | 1017.1 |
| 20260903014536 | 64 | 167 | 0.0 | 0.0 | 0.00 | 0.00 | 0.00 | 81 | 1017.2 |
| 20260903014031 | 64 | 165 | 0.0 | 0.0 | 0.00 | 0.00 | 0.00 | 80 | 1017.1 |
| 20260903013531 | 64 | 161 | 0.0 | 0.0 | 0.00 | 0.00 | 0.00 | 81 | 1017.2 |
| 20260903013026 | 64 | 192 | 0.0 | 0.0 | 0.00 | 0.00 | 0.00 | 82 | 1017.1 |
| 20260903012520 | 64 | 192 | 0.0 | 0.0 | 0.00 | 0.00 | 0.00 | 82 | 1017.1 |
| 20260903012019 | 64 | 193 | 0.0 | 0.0 | 0.00 | 0.00 | 0.00 | 81 | 1017.2 |
| 20260903011519 | 65 | 192 | 0.0 | 1.0 | 0.00 | 0.00 | 0.00 | 81 | 1017.1 |
| 20260903011014 | 65 | 184 | 0.0 | 1.0 | 0.00 | 0.00 | 0.00 | 79 | 1017.2 |
| 20260903010509 | 65 | 190 | 0.0 | 1.0 | 0.00 | 0.00 | 0.00 | 79 | 1017.0 |
| 20260903010007 | 65 | 195 | 0.0 | 0.0 | 0.00 | 0.00 | 0.00 | 80 | 1016.8 |
| 20260903005502 | 65 | 195 | 0.0 | 0.0 | 0.00 | 0.00 | 0.00 | 79 | 1017.0 |
| 20260903004958 | 66 | 195 | 0.0 | 0.0 | 0.00 | 0.00 | 0.00 | 79 | 1017.0 |
| 20260903004453 | 66 | 200 | 0.0 | 1.0 | 0.00 | 0.00 | 0.00 | 78 | 1016.7 |
| 20260903003948 | 67 | 202 | 0.0 | 0.0 | 0.00 | 0.00 | 0.00 | 77 | 1016.7 |
| 20260903003448 | 67 | 197 | 0.0 | 1.0 | 0.00 | 0.00 | 0.00 | 76 | 1016.6 |
| 20260903002943 | 68 | 201 | 0.0 | 1.0 | 0.00 | 0.00 | 0.00 | 76 | 1016.7 |
| 20260903002438 | 68 | 221 | 0.0 | 0.0 | 0.00 | 0.00 | 0.00 | 74 | 1016.6 |
| 20260903001938 | 69 | 197 | 0.0 | 0.0 | 0.00 | 0.00 | 0.00 | 72 | 1016.6 |
| 20260903001437 | 70 | 227 | 1.0 | 1.0 | 0.00 | 0.00 | 0.00 | 71 | 1016.7 |
| 20260903000932 | 71 | 209 | 0.0 | 1.0 | 0.00 | 0.00 | 0.00 | 70 | 1016.6 |
| 20260903000428 | 72 | 271 | 0.0 | 1.0 | 0.00 | 0.00 | 0.00 | 67 | 1016.6 |
| 20260902235925 | 73 | 265 | 1.0 | 1.0 | 0.00 | 0.00 | 0.00 | 66 | 1016.8 |
| 20260902235420 | 73 | 244 | 0.0 | 1.0 | 0.00 | 0.00 | 0.00 | 65 | 1016.5 |
| 20260902234914 | 73 | 260 | 0.0 | 1.0 | 0.00 | 0.00 | 0.00 | 64 | 1016.7 |
| 20260902234409 | 73 | 259 | 1.0 | 2.0 | 0.00 | 0.00 | 0.00 | 64 | 1016.6 |
| 20260902233908 | 73 | 233 | 0.0 | 3.0 | 0.00 | 0.00 | 0.00 | 64 | 1016.7 |
| 20260902233403 | 72 | 286 | 1.0 | 1.0 | 0.00 | 0.00 | 0.00 | 64 | 1016.7 |
| 20260902232902 | 73 | 243 | 0.0 | 2.0 | 0.00 | 0.00 | 0.00 | 63 | 1016.7 |
| 20260902232356 | 72 | 315 | 1.0 | 2.0 | 0.00 | 0.00 | 0.00 | 63 | 1016.7 |
| 20260902231850 | 72 | 272 | 1.0 | 2.0 | 0.00 | 0.00 | 0.00 | 63 | 1016.9 |
| 20260902231345 | 73 | 225 | 0.0 | 1.0 | 0.00 | 0.00 | 0.00 | 63 | 1016.8 |
| 20260902230840 | 73 | 318 | 0.0 | 2.0 | 0.00 | 0.00 | 0.00 | 61 | 1016.7 |
| 20260902230339 | 74 | 287 | 1.0 | 1.0 | 0.00 | 0.00 | 0.00 | 62 | 1016.7 |
| 20260902225834 | 75 | 249 | 0.0 | 1.0 | 0.00 | 0.00 | 0.00 | 59 | 1016.8 |
| 20260902225329 | 75 | 241 | 0.0 | 1.0 | 0.00 | 0.00 | 0.00 | 60 | 1016.9 |
| 20260902224827 | 74 | 262 | 0.0 | 1.0 | 0.00 | 0.00 | 0.00 | 62 | 1016.7 |
| 20260902224322 | 73 | 275 | 0.0 | 3.0 | 0.00 | 0.00 | 0.00 | 63 | 1016.6 |
| 20260902223820 | 73 | 235 | 0.0 | 1.0 | 0.00 | 0.00 | 0.00 | 64 | 1016.8 |
| 20260902223319 | 74 | 253 | 1.0 | 3.0 | 0.00 | 0.00 | 0.00 | 62 | 1016.7 |
| 20260902222813 | 75 | 269 | 2.0 | 6.0 | 0.00 | 0.00 | 0.00 | 61 | 1016.9 |
| 20260902222306 | 76 | 190 | 2.0 | 3.0 | 0.00 | 0.00 | 0.00 | 60 | 1016.8 |
| 20260902221800 | 75 | 278 | 1.0 | 4.0 | 0.00 | 0.00 | 0.00 | 60 | 1016.8 |
| 20260902221300 | 76 | 215 | 1.0 | 3.0 | 0.00 | 0.00 | 0.00 | 60 | 1016.8 |
| 20260902220755 | 77 | 237 | 2.0 | 4.0 | 0.00 | 0.00 | 0.00 | 59 | 1016.9 |
| 20260902220255 | 76 | 287 | 1.0 | 3.0 | 0.00 | 0.00 | 0.00 | 59 | 1016.8 |
| 20260902215750 | 76 | 248 | 0.0 | 3.0 | 0.00 | 0.00 | 0.00 | 59 | 1017.0 |
| 20260902215245 | 75 | 289 | 2.0 | 4.0 | 0.00 | 0.00 | 0.00 | 60 | 1016.8 |
| 20260902214741 | 77 | 271 | 3.0 | 4.0 | 0.00 | 0.00 | 0.00 | 60 | 1016.8 |
| 20260902214240 | 78 | 275 | 0.0 | 2.0 | 0.00 | 0.00 | 0.00 | 58 | 1016.9 |
| 20260902213736 | 78 | 267 | 1.0 | 3.0 | 0.00 | 0.00 | 0.00 | 58 | 1016.7 |
| 20260902213236 | 77 | 347 | 2.0 | 2.0 | 0.00 | 0.00 | 0.00 | 58 | 1016.7 |
| 20260902212735 | 76 | 279 | 2.0 | 4.0 | 0.00 | 0.00 | 0.00 | 60 | 1016.8 |
| 20260902212233 | 77 | 286 | 1.0 | 7.0 | 0.00 | 0.00 | 0.00 | 58 | 1016.7 |
| 20260902211728 | 76 | 254 | 3.0 | 6.0 | 0.00 | 0.00 | 0.00 | 59 | 1016.7 |
| 20260902211223 | 77 | 257 | 3.0 | 6.0 | 0.00 | 0.00 | 0.00 | 59 | 1016.5 |
| 20260902210718 | 77 | 241 | 1.0 | 4.0 | 0.00 | 0.00 | 0.00 | 60 | 1016.7 |
| 20260902210214 | 76 | 258 | 4.0 | 6.0 | 0.00 | 0.00 | 0.00 | 60 | 1016.6 |
| 20260902205711 | 76 | 283 | 0.0 | 6.0 | 0.00 | 0.00 | 0.00 | 60 | 1016.6 |
| 20260902205207 | 76 | 271 | 4.0 | 8.0 | 0.00 | 0.00 | 0.00 | 59 | 1016.7 |
| 20260902204702 | 76 | 290 | 2.0 | 3.0 | 0.00 | 0.00 | 0.00 | 60 | 1016.7 |
| 20260902204156 | 77 | 61 | 3.0 | 7.0 | 0.00 | 0.00 | 0.00 | 58 | 1016.5 |
| 20260902203652 | 77 | 246 | 3.0 | 4.0 | 0.00 | 0.00 | 0.00 | 58 | 1016.5 |
| 20260902203152 | 77 | 240 | 2.0 | 8.0 | 0.00 | 0.00 | 0.00 | 58 | 1016.6 |
| 20260902202646 | 77 | 229 | 1.0 | 3.0 | 0.00 | 0.00 | 0.00 | 60 | 1016.4 |
| 20260902202143 | 77 | 240 | 0.0 | 8.0 | 0.00 | 0.00 | 0.00 | 60 | 1016.6 |
| 20260902201639 | 76 | 342 | 2.0 | 6.0 | 0.00 | 0.00 | 0.00 | 60 | 1016.7 |
| 20260902201138 | 77 | 324 | 2.0 | 3.0 | 0.00 | 0.00 | 0.00 | 58 | 1016.5 |